H1 CPF 2 NER 2021 6 26 9 177 01 glonass137 H2 1705501 9137 42939 2021 6 26 0 0 0 2021 6 29 23 45 0 900 1 1 0 0 0 1 H9 10 0 59391 0.00000 0 -14287511.096 -5254553.932 -20446564.071 10 0 59391 900.00000 0 -11856573.480 -6188701.464 -21701474.947 10 0 59391 1800.00000 0 -9383444.343 -7351213.299 -22534127.905 10 0 59391 2700.00000 0 -6934626.423 -8725635.500 -22928378.581 10 0 59391 3600.00000 0 -4573310.236 -10283784.007 -22876624.722 10 0 59391 4500.00000 0 -2356937.738 -11986770.800 -22379949.053 10 0 59391 5400.00000 0 -335020.244 -13786495.557 -21448092.384 10 0 59391 6300.00000 0 1452699.203 -15627540.709 -20099257.825 10 0 59391 7200.00000 0 2977663.490 -17449390.528 -18359750.355 10 0 59391 8100.00000 0 4223441.443 -19188881.411 -16263459.051 10 0 59391 9000.00000 0 5186152.641 -20782780.804 -13851192.267 10 0 59391 9900.00000 0 5874361.055 -22170386.692 -11169879.024 10 0 59391 10800.00000 0 6308443.978 -23296038.858 -8271652.289 10 0 59391 11700.00000 0 6519464.638 -24111436.722 -5212832.243 10 0 59391 12600.00000 0 6547597.682 -24577666.743 -2052829.595 10 0 59391 13500.00000 0 6440175.445 -24666854.629 1147009.474 10 0 59391 14400.00000 0 6249438.688 -24363373.358 4324594.085 10 0 59391 15300.00000 0 6030087.712 -23664556.716 7418291.773 10 0 59391 16200.00000 0 5836737.919 -22580888.846 10368120.573 10 0 59391 17100.00000 0 5721387.643 -21135662.129 13116907.089 10 0 59391 18000.00000 0 5731005.232 -19364117.978 15611388.359 10 0 59391 18900.00000 0 5905337.151 -17312106.448 17803236.706 10 0 59391 19800.00000 0 6275029.400 -15034320.417 19649988.470 10 0 59391 20700.00000 0 6860141.262 -12592177.533 21115859.398 10 0 59391 21600.00000 0 7669114.019 -10051437.353 22172431.820 10 0 59391 22500.00000 0 8698238.322 -7479651.815 22799201.112 10 0 59391 23400.00000 0 9931643.225 -4943553.861 22983971.466 10 0 59391 24300.00000 0 11341808.360 -2506491.375 22723093.731 10 0 59391 25200.00000 0 12890579.138 -226011.668 22021540.731 10 0 59391 26100.00000 0 14530643.958 1848304.341 20892818.315 10 0 59391 27000.00000 0 16207413.269 3676669.350 19358713.209 10 0 59391 27900.00000 0 17861223.423 5230503.228 17448881.635 10 0 59391 28800.00000 0 19429774.429 6493374.580 15200285.547 10 0 59391 29700.00000 0 20850700.546 7461431.586 12656486.251 10 0 59391 30600.00000 0 22064166.635 8143304.422 9866807.969 10 0 59391 31500.00000 0 23015381.435 8559483.535 6885386.703 10 0 59391 32400.00000 0 23656921.908 8741200.180 3770122.228 10 0 59391 33300.00000 0 23950770.242 8728856.659 581553.275 10 0 59391 34200.00000 0 23869976.718 8570072.858 -2618322.059 10 0 59391 35100.00000 0 23399877.239 8317432.285 -5767257.300 10 0 59391 36000.00000 0 22538812.922 8026023.732 -8803975.725 10 0 59391 36900.00000 0 21298320.237 7750883.606 -11669370.925 10 0 59391 37800.00000 0 19702782.649 7544448.371 -14307665.504 10 0 59391 38700.00000 0 17788557.512 7454126.155 -16667504.455 10 0 59391 39600.00000 0 15602614.432 7520091.514 -18702961.067 10 0 59391 40500.00000 0 13200741.863 7773397.728 -20374435.303 10 0 59391 41400.00000 0 10645396.936 8234487.414 -21649426.848 10 0 59391 42300.00000 0 8003288.576 8912165.142 -22503167.703 10 0 59391 43200.00000 0 5342794.863 9803076.021 -22919102.235 10 0 59391 44100.00000 0 2731322.353 10891712.696 -22889205.666 10 0 59391 45000.00000 0 232717.326 12150950.763 -22414135.233 10 0 59391 45900.00000 0 -2095163.635 13543090.254 -21503211.567 10 0 59391 46800.00000 0 -4202623.269 15021359.554 -20174231.062 10 0 59391 47700.00000 0 -6049943.997 16531818.540 -18453113.324 10 0 59391 48600.00000 0 -7608784.471 18015581.029 -16373390.841 10 0 59391 49500.00000 0 -8863095.606 19411263.168 -13975551.069 10 0 59391 50400.00000 0 -9809519.531 20657554.857 -11306244.002 10 0 59391 51300.00000 0 -10457256.705 21695806.179 -8417370.842 10 0 59391 52200.00000 0 -10827408.721 22472520.182 -5365071.706 10 0 59391 53100.00000 0 -10951826.255 22941647.281 -2208632.384 10 0 59391 54000.00000 0 -10871512.357 23066584.954 990668.376 10 0 59391 54900.00000 0 -10634649.874 22821798.878 4170748.432 10 0 59391 55800.00000 0 -10294337.304 22193997.547 7269925.305 10 0 59391 56700.00000 0 -9906129.498 21182811.257 10228109.351 10 0 59391 57600.00000 0 -9525487.497 19800947.088 12987964.041 10 0 59391 58500.00000 0 -9205245.287 18073813.417 15496011.081 10 0 59391 59400.00000 0 -8993200.289 16038629.547 17703659.519 10 0 59391 60300.00000 0 -8929928.894 13743057.220 19568139.604 10 0 59391 61200.00000 0 -9046918.754 11243410.603 21053324.099 10 0 59391 62100.00000 0 -9365096.219 8602518.384 22130422.030 10 0 59391 63000.00000 0 -9893810.729 5887325.796 22778532.267 10 0 59391 63900.00000 0 -10630319.064 3166335.022 22985046.818 10 0 59391 64800.00000 0 -11559791.592 506988.786 22745896.463 10 0 59391 65700.00000 0 -12655841.158 -2026895.704 22065634.024 10 0 59391 66600.00000 0 -13881553.559 -4377537.252 20957353.364 10 0 59391 67500.00000 0 -15190977.752 -6495346.780 19442445.096 10 0 59391 68400.00000 0 -16531014.769 -8340740.474 17550192.782 10 0 59391 69300.00000 0 -17843627.418 -9885535.197 15317216.380 10 0 59391 70200.00000 0 -19068279.166 -11113868.639 12786772.564 10 0 59391 71100.00000 0 -20144500.572 -12022606.115 10007924.316 10 0 59391 72000.00000 0 -21014475.698 -12621217.178 7034595.040 10 0 59391 72900.00000 0 -21625539.560 -12931127.458 3924524.908 10 0 59391 73800.00000 0 -21932480.891 -12984573.191 738149.352 10 0 59391 74700.00000 0 -21899552.175 -12823007.009 -2462578.301 10 0 59391 75600.00000 0 -21502101.017 -12495122.751 -5615396.770 10 0 59391 76500.00000 0 -20727752.590 -12054583.441 -8658955.126 10 0 59391 77400.00000 0 -19577091.911 -11557549.344 -11534014.728 10 0 59391 78300.00000 0 -18063815.850 -11060111.701 -14184610.482 10 0 59391 79200.00000 0 -16214347.249 -10615741.797 -16559147.901 10 0 59391 80100.00000 0 -14066926.506 -10272864.361 -18611413.761 10 0 59391 81000.00000 0 -11670218.047 -10072658.900 -20301480.134 10 0 59391 81900.00000 0 -9081489.618 -10047182.734 -21596483.948 10 0 59391 82800.00000 0 -6364440.406 -10217895.642 -22471266.754 10 0 59391 83700.00000 0 -3586768.500 -10594648.811 -22908862.487 10 0 59391 84600.00000 0 -817579.061 -11175180.965 -22900824.058 10 0 59391 85500.00000 0 1875258.938 -11945142.959 -22447382.813 10 0 59392 0.00000 0 4427697.712 -12878649.703 -21557438.297 10 0 59392 900.00000 0 6781930.308 -13939336.229 -20248378.745 10 0 59392 1800.00000 0 8888545.216 -15081872.681 -18545736.646 10 0 59392 2700.00000 0 10708326.437 -16253875.060 -16482685.801 10 0 59392 3600.00000 0 12213626.600 -17398130.368 -14099390.403 10 0 59392 4500.00000 0 13389256.209 -18455042.675 -11442218.819 10 0 59392 5400.00000 0 14232854.195 -19365196.840 -8562837.696 10 0 59392 6300.00000 0 14754725.971 -20071931.844 -5517204.148 10 0 59392 7200.00000 0 14977157.611 -20523815.295 -2364476.011 10 0 59392 8100.00000 0 14933236.800 -20676914.877 834138.464 10 0 59392 9000.00000 0 14665231.736 -20496771.138 4016568.892 10 0 59392 9900.00000 0 14222597.592 -19959988.642 7121085.669 10 0 59392 10800.00000 0 13659695.590 -19055378.605 10087494.160 10 0 59392 11700.00000 0 13033321.488 -17784605.000 12858297.129 10 0 59392 12600.00000 0 12400148.010 -16162306.897 15379803.068 10 0 59392 13500.00000 0 11814188.995 -14215691.643 17603159.514 10 0 59392 14400.00000 0 11324391.794 -11983615.382 19485292.040 10 0 59392 15300.00000 0 10972458.875 -9515188.630 20989731.462 10 0 59392 16200.00000 0 10790989.741 -6867964.036 22087314.181 10 0 59392 17100.00000 0 10802020.864 -4105780.504 22756742.895 10 0 59392 18000.00000 0 11016024.732 -1296352.002 22984997.446 10 0 59392 18900.00000 0 11431410.048 1491300.415 22767588.281 10 0 59392 19800.00000 0 12034544.406 4189468.335 22108647.710 10 0 59392 20700.00000 0 12800299.169 6734320.178 21020856.908 10 0 59392 21600.00000 0 13693094.605 9068304.814 19525209.494 10 0 59392 22500.00000 0 14668402.535 11142295.881 17650615.345 10 0 59392 23400.00000 0 15674644.521 12917388.431 15433351.274 10 0 59392 24300.00000 0 16655406.872 14366273.699 12916368.021 10 0 59392 25200.00000 0 17551880.140 15474135.022 10148465.879 10 0 59392 26100.00000 0 18305420.804 16239027.549 7183354.040 10 0 59392 27000.00000 0 18860127.301 16671726.005 4078611.279 10 0 59392 27900.00000 0 19165321.300 16795046.968 894567.774 10 0 59392 28800.00000 0 19177828.722 16642674.334 -2306870.020 10 0 59392 29700.00000 0 18863963.003 16257537.804 -5463428.228 10 0 59392 30600.00000 0 18201125.468 15689813.330 -8513683.966 10 0 59392 31500.00000 0 17178953.710 14994630.619 -11398268.592 10 0 59392 32400.00000 0 15799968.007 14229585.494 -14061031.492 10 0 59392 33300.00000 0 14079687.056 13452163.161 -16450140.787 10 0 59392 34200.00000 0 12046206.951 12717182.275 -18519098.711 10 0 59392 35100.00000 0 9739260.041 12074368.693 -20227651.334 10 0 59392 36000.00000 0 7208792.347 11566162.126 -21542574.600 10 0 59392 36900.00000 0 4513118.604 11225848.782 -22438321.287 10 0 59392 37800.00000 0 1716731.640 11076099.054 -22897516.447 10 0 59392 38700.00000 0 -1112142.803 11127971.957 -22911292.045 10 0 59392 39600.00000 0 -3904144.057 11380428.057 -22479454.659 10 0 59392 40500.00000 0 -6591419.484 11820371.064 -21610483.489 10 0 59392 41400.00000 0 -9110202.869 12423215.865 -20321359.135 10 0 59392 42300.00000 0 -11403221.449 13153958.522 -18637226.890 10 0 59392 43200.00000 0 -13421832.299 13968702.615 -16590901.445 10 0 59392 44100.00000 0 -15127800.111 14816577.100 -14222222.864 10 0 59392 45000.00000 0 -16494643.478 15641964.394 -11577276.669 10 0 59392 45900.00000 0 -17508494.995 16386944.331 -8707493.393 10 0 59392 46800.00000 0 -18168440.855 16993850.632 -5668645.320 10 0 59392 47700.00000 0 -18486327.390 17407831.812 -2519760.257 10 0 59392 48600.00000 0 -18486044.426 17579308.334 678026.333 10 0 59392 49500.00000 0 -18202317.171 17466222.304 3862658.308 10 0 59392 50400.00000 0 -17679058.817 17035984.798 6972361.612 10 0 59392 51300.00000 0 -16967354.385 16267038.750 9946839.459 10 0 59392 52200.00000 0 -16123161.478 15149971.528 12728436.868 10 0 59392 53100.00000 0 -15204825.204 13688130.248 15263252.142 10 0 59392 54000.00000 0 -14270512.006 11897713.697 17502174.345 10 0 59392 54900.00000 0 -13375670.090 9807336.385 19401827.317 10 0 59392 55800.00000 0 -12570622.797 7457082.242 20925402.723 10 0 59392 56700.00000 0 -11898395.400 4897086.367 22043366.890 10 0 59392 57600.00000 0 -11392865.877 2185702.598 22734028.585 10 0 59392 58500.00000 0 -11077316.714 -612668.304 22983957.349 10 0 59392 59400.00000 0 -10963448.042 -3430001.251 22788244.740 10 0 59392 60300.00000 0 -11050893.350 -6197221.330 22150603.536 10 0 59392 61200.00000 0 -11327258.250 -8846824.894 21083302.701 10 0 59392 62100.00000 0 -11768681.102 -11315439.906 19606938.832 10 0 59392 63000.00000 0 -12340892.643 -13546220.487 17750047.580 10 0 59392 63900.00000 0 -13000730.931 -15490976.932 15548561.563 10 0 59392 64800.00000 0 -13698048.740 -17111953.226 13045124.077 10 0 59392 65700.00000 0 -14377933.839 -18383178.281 10288270.795 10 0 59392 66600.00000 0 -14983149.058 -19291334.493 7331494.404 10 0 59392 67500.00000 0 -15456689.383 -19836107.287 4232209.668 10 0 59392 68400.00000 0 -15744347.799 -20030000.898 1050638.647 10 0 59392 69300.00000 0 -15797180.850 -19897628.051 -2151362.156 10 0 59392 70200.00000 0 -15573768.608 -19474503.594 -5311509.518 10 0 59392 71100.00000 0 -15042172.185 -18805393.150 -8368311.979 10 0 59392 72000.00000 0 -14181504.506 -17942286.959 -11262274.365 10 0 59392 72900.00000 0 -12983046.389 -16942085.076 -13937064.007 10 0 59392 73800.00000 0 -11450859.205 -15864092.463 -16340615.024 10 0 59392 74700.00000 0 -9601866.890 -14767430.560 -18426148.302 10 0 59392 75600.00000 0 -7465402.522 -13708475.406 -20153086.773 10 0 59392 76500.00000 0 -5082237.448 -12738430.999 -21487847.853 10 0 59392 77400.00000 0 -2503132.860 -11901140.725 -22404497.466 10 0 59392 78300.00000 0 213026.225 -11231229.218 -22885253.134 10 0 59392 79200.00000 0 3001437.131 -10752652.833 -22920826.633 10 0 59392 80100.00000 0 5793834.119 -10477719.400 -22510599.963 10 0 59392 81000.00000 0 8521089.495 -10406617.926 -21662631.671 10 0 59392 81900.00000 0 11115853.339 -10527477.245 -20393493.859 10 0 59392 82800.00000 0 13515122.354 -10816950.313 -18727943.425 10 0 59392 83700.00000 0 15662631.540 -11241298.591 -16698434.301 10 0 59392 84600.00000 0 17510969.890 -11757929.935 -14344480.401 10 0 59392 85500.00000 0 19023332.810 -12317324.357 -11711881.992 10 0 59393 0.00000 0 20174839.408 -12865265.685 -8851830.790 10 0 59393 900.00000 0 20953360.764 -13345284.204 -5819911.031 10 0 59393 1800.00000 0 21359826.571 -13701207.186 -2675017.199 10 0 59393 2700.00000 0 21407997.733 -13879708.292 521791.547 10 0 59393 3600.00000 0 21123717.314 -13832749.092 3708476.869 10 0 59393 4500.00000 0 20543671.653 -13519808.626 6823223.749 10 0 59393 5400.00000 0 19713715.410 -12909807.267 9805636.532 10 0 59393 6300.00000 0 18686831.689 -11982643.515 12597905.459 10 0 59393 7200.00000 0 17520813.615 -10730278.873 15145921.242 10 0 59393 8100.00000 0 16275764.998 -9157324.869 17400316.623 10 0 59393 9000.00000 0 15011524.940 -7281107.000 19317415.410 10 0 59393 9900.00000 0 13785124.065 -5131202.191 20860071.341 10 0 59393 10800.00000 0 12648378.411 -2748468.011 21998381.447 10 0 59393 11700.00000 0 11645721.004 -183602.793 22710260.904 10 0 59393 12600.00000 0 10812361.208 2504704.821 22981868.869 10 0 59393 13500.00000 0 10172848.126 5251961.693 22807877.553 10 0 59393 14400.00000 0 9740097.694 7990302.304 22191579.387 10 0 59393 15300.00000 0 9514923.896 10651067.784 21144830.011 10 0 59393 16200.00000 0 9486093.700 13167426.383 19687827.615 10 0 59393 17100.00000 0 9630903.632 15476927.852 17848732.031 10 0 59393 18000.00000 0 9916254.208 17523886.476 15663129.910 10 0 59393 18900.00000 0 10300177.583 19261494.262 13173355.195 10 0 59393 19800.00000 0 10733754.632 20653576.546 10427676.893 10 0 59393 20700.00000 0 11163341.049 21675916.670 7479369.037 10 0 59393 21600.00000 0 11533008.678 22317094.199 4385680.144 10 0 59393 22500.00000 0 11787098.751 22578801.272 1206721.848 10 0 59393 23400.00000 0 11872778.519 22475623.484 -1995701.619 10 0 59393 24300.00000 0 11742492.244 22034294.394 -5159299.998 10 0 59393 25200.00000 0 11356201.553 21292455.001 -8222515.471 10 0 59393 26100.00000 0 10683318.957 20296970.686 -11125728.425 10 0 59393 27000.00000 0 9704251.131 19101876.978 -13812426.060 10 0 59393 27900.00000 0 8411485.091 17766041.361 -16230310.240 10 0 59393 28800.00000 0 6810169.886 16350640.395 -18332322.076 10 0 59393 29700.00000 0 4918167.811 14916559.187 -20077562.786 10 0 59393 30600.00000 0 2765571.706 13521823.357 -21432092.537 10 0 59393 31500.00000 0 393707.597 12219172.051 -22369591.554 10 0 59393 32400.00000 0 -2146336.399 11053874.285 -22871870.837 10 0 59393 33300.00000 0 -4795594.033 10061880.292 -22929222.801 10 0 59393 34200.00000 0 -7489439.497 9268385.162 -22540605.453 10 0 59393 35100.00000 0 -10160048.507 8686864.400 -21713656.980 10 0 59393 36000.00000 0 -12738999.679 8318620.948 -20464540.920 10 0 59393 36900.00000 0 -15159908.158 8152861.606 -18817625.335 10 0 59393 37800.00000 0 -17360982.251 8167298.354 -16805002.583 10 0 59393 38700.00000 0 -19287397.140 8329248.014 -14465859.288 10 0 59393 39600.00000 0 -20893387.314 8597182.730 -11845709.030 10 0 59393 40500.00000 0 -22143971.315 8922664.762 -8995502.926 10 0 59393 41400.00000 0 -23016237.793 9252582.999 -5970635.575 10 0 59393 42300.00000 0 -23500140.182 9531595.988 -2829866.035 10 0 59393 43200.00000 0 -23598768.048 9704677.645 365824.972 10 0 59393 44100.00000 0 -23328085.027 9719657.650 3554419.194 10 0 59393 45000.00000 0 -22716145.571 9529648.903 6674063.075 10 0 59393 45900.00000 0 -21801824.559 9095259.346 9664264.659 10 0 59393 46800.00000 0 -20633113.977 8386494.627 12467062.100 10 0 59393 47700.00000 0 -19265058.826 7384271.278 15028141.260 10 0 59393 48600.00000 0 -17757419.178 6081476.394 17297881.289 10 0 59393 49500.00000 0 -16172156.352 4483528.824 19232308.583 10 0 59393 50400.00000 0 -14570848.228 2608417.657 20793941.384 10 0 59393 51300.00000 0 -13012141.236 486215.421 21952509.572 10 0 59393 52200.00000 0 -11549344.770 -1841914.977 22685536.524 10 0 59393 53100.00000 0 -10228267.688 -4325179.573 22978772.423 10 0 59393 54000.00000 0 -9085386.338 -6905019.885 22826471.107 10 0 59393 54900.00000 0 -8146419.812 -9517310.843 22231505.215 10 0 59393 55800.00000 0 -7425371.346 -12094800.435 21205317.176 10 0 59393 56700.00000 0 -6924075.483 -14569691.369 19767706.478 10 0 59393 57600.00000 0 -6632269.782 -16876258.886 17946456.420 10 0 59393 58500.00000 0 -6528188.072 -18953396.823 15776806.600 10 0 59393 59400.00000 0 -6579650.555 -20746986.728 13300780.153 10 0 59393 60300.00000 0 -6745605.131 -22211991.563 10566377.672 10 0 59393 61200.00000 0 -6978055.265 -23314186.554 7626652.508 10 0 59393 62100.00000 0 -7224293.146 -24031454.486 4538684.688 10 0 59393 63000.00000 0 -7429343.599 -24354590.779 1362472.992 10 0 59393 63900.00000 0 -7538514.984 -24287583.949 -1840233.227 10 0 59393 64800.00000 0 -7499948.282 -23847359.267 -5007139.401 10 0 59393 65700.00000 0 -7267055.367 -23062996.020 -8076624.234 10 0 59393 66600.00000 0 -6800741.863 -21974451.238 -10988946.645 10 0 59393 67500.00000 0 -6071318.970 -20630843.733 -13687416.752 10 0 59393 68400.00000 0 -5060021.773 -19088371.058 -16119507.183 10 0 59393 69300.00000 0 -3760068.314 -17407947.605 -18237882.197 10 0 59393 70200.00000 0 -2177213.218 -15652663.814 -20001324.008 10 0 59393 71100.00000 0 -329771.152 -13885173.867 -21375537.915 10 0 59393 72000.00000 0 1751891.977 -12165122.124 -22333820.436 10 0 59393 72900.00000 0 4026379.758 -10546716.547 -22857577.567 10 0 59393 73800.00000 0 6442755.973 -9076550.820 -22936683.398 10 0 59393 74700.00000 0 8942443.437 -7791766.203 -22569672.490 10 0 59393 75600.00000 0 11461452.151 -6718629.374 -21763762.755 10 0 59393 76500.00000 0 13932844.165 -5871584.900 -20534708.816 10 0 59393 77400.00000 0 16289332.569 -5252820.823 -18906489.128 10 0 59393 78300.00000 0 18465906.604 -4852364.106 -16910833.286 10 0 59393 79200.00000 0 20402373.752 -4648700.387 -14586598.991 10 0 59393 80100.00000 0 22045713.157 -4609890.430 -11979011.061 10 0 59393 81000.00000 0 23352142.711 -4695134.773 -9138777.564 10 0 59393 81900.00000 0 24288814.139 -4856719.264 -6121100.400 10 0 59393 82800.00000 0 24835066.004 -5042258.269 -2984599.972 10 0 59393 83700.00000 0 24983183.160 -5197139.879 209824.971 10 0 59393 84600.00000 0 24738631.884 -5267069.102 3400179.934 10 0 59393 85500.00000 0 24119761.827 -5200601.096 6524576.469 10 0 59394 0.00000 0 23156988.348 -4951557.152 9522429.771 10 0 59394 900.00000 0 21891490.117 -4481220.771 12335629.266 10 0 59394 1800.00000 0 20373477.681 -3760222.294 14909658.806 10 0 59394 2700.00000 0 18660105.230 -2770030.359 17194646.415 10 0 59394 3600.00000 0 16813113.521 -1503989.302 19146323.113 10 0 59394 4500.00000 0 14896301.990 32143.089 20726873.210 10 0 59394 5400.00000 0 12972935.216 1820180.146 21905660.538 10 0 59394 6300.00000 0 11103191.087 3830015.196 22659817.312 10 0 59394 7200.00000 0 9341756.244 6020634.752 22974684.915 10 0 59394 8100.00000 0 7735667.958 8341595.379 22844098.532 10 0 59394 9000.00000 0 6322491.390 10734904.503 22270510.281 10 0 59394 9900.00000 0 5128907.391 13137228.583 21264948.241 10 0 59394 10800.00000 0 4169768.986 15482338.500 19846811.666 10 0 59394 11700.00000 0 3447665.448 17703691.944 18043505.475 10 0 59394 12600.00000 0 2953011.904 19737046.394 15889920.084 10 0 59394 13500.00000 0 2664660.586 21522994.688 13427765.496 10 0 59394 14400.00000 0 2551008.016 23009317.793 10704771.395 10 0 59394 15300.00000 0 2571551.616 24153056.447 7773767.849 10 0 59394 16200.00000 0 2678830.060 24922214.667 4691663.732 10 0 59394 17100.00000 0 2820665.273 25297023.155 1518342.273 10 0 59394 18000.00000 0 2942610.852 25270708.807 -1684504.710 10 0 59394 18900.00000 0 2990502.629 24849737.268 -4854580.923 10 0 59394 19800.00000 0 2913002.341 24053517.660 -7930204.025 10 0 59394 20700.00000 0 2664025.503 22913581.442 -10851513.700 10 0 59394 21600.00000 0 2204949.201 21472269.695 -13561644.963 10 0 59394 22500.00000 0 1506504.851 19780984.103 -16007842.946 10 0 59394 23400.00000 0 550274.355 17898075.393 -18142496.534 10 0 59394 24300.00000 0 -670275.053 15886458.398 -19924070.182 10 0 59394 25200.00000 0 -2149262.282 13811054.274 -21317915.370 10 0 59394 26100.00000 0 -3868393.638 11736167.626 -22296945.750 10 0 59394 27000.00000 0 -5797494.813 9722908.707 -22842162.954 10 0 59394 27900.00000 0 -7895552.139 7826768.610 -22943023.168 10 0 59394 28800.00000 0 -10112220.078 6095448.710 -22597637.658 10 0 59394 29700.00000 0 -12389732.339 4567034.489 -21812803.899 10 0 59394 30600.00000 0 -14665137.123 3268589.164 -20603867.085 10 0 59394 31500.00000 0 -16872763.308 2215224.739 -18994415.190 10 0 59394 32400.00000 0 -18946814.816 1409687.830 -17015813.826 10 0 59394 33300.00000 0 -20823985.070 842475.905 -14706590.245 10 0 59394 34200.00000 0 -22445982.486 492477.318 -12111678.740 10 0 59394 35100.00000 0 -23761861.835 328106.450 -9281542.362 10 0 59394 36000.00000 0 -24730064.379 308884.499 -6271188.229 10 0 59394 36900.00000 0 -25320081.921 387397.839 -3139095.886 10 0 59394 37800.00000 0 -25513675.735 511550.058 53920.183 10 0 59394 38700.00000 0 -25305600.050 627011.565 3245891.613 10 0 59394 39600.00000 0 -24703800.503 679762.592 6374897.550 10 0 59394 40500.00000 0 -23729080.040 618621.635 9380263.008 10 0 59394 41400.00000 0 -22414246.890 397652.252 12203731.043 10 0 59394 42300.00000 0 -20802780.852 -21653.512 14790586.180 10 0 59394 43200.00000 0 -18947073.963 -668507.280 17090707.822 10 0 59394 44100.00000 0 -16906319.137 -1561350.913 19059533.905 10 0 59394 45000.00000 0 -14744134.693 -2706839.758 20658916.838 10 0 59394 45900.00000 0 -12526023.289 -4099325.816 21857856.077 10 0 59394 46800.00000 0 -10316770.345 -5720863.335 22633093.948 10 0 59394 47700.00000 0 -8177889.306 -7541737.703 22969563.872 10 0 59394 48600.00000 0 -6165218.942 -9521496.946 22860682.794 10 0 59394 49500.00000 0 -4326771.478 -11610444.440 22308482.307 10 0 59394 50400.00000 0 -2700920.106 -13751532.261 21323575.753 10 0 59394 51300.00000 0 -1315000.379 -15882577.985 19924961.417 10 0 59394 52200.00000 0 -184383.026 -17938714.151 18139664.773 10 0 59394 53100.00000 0 687943.598 -19854969.487 16002225.696 10 0 59394 54000.00000 0 1311264.367 -21568875.179 13554039.418 10 0 59394 54900.00000 0 1706506.347 -23022987.843 10842562.845 10 0 59394 55800.00000 0 1905112.485 -24167223.732 7920400.686 10 0 59394 56700.00000 0 1947467.605 -24960906.113 4844288.414 10 0 59394 57600.00000 0 1880943.329 -25374439.325 1673991.343 10 0 59394 58500.00000 0 1757644.899 -25390538.286 -1528858.702 10 0 59394 59400.00000 0 1631955.839 -25004960.846 -4701966.230 10 0 59394 60300.00000 0 1557985.285 -24226711.156 -7783590.428 10 0 59394 61200.00000 0 1587027.163 -23077704.697 -10713754.364 10 0 59394 62100.00000 0 1765140.159 -21591908.435 -13435420.579 10 0 59394 63000.00000 0 2130952.325 -19813991.867 -15895609.293 10 0 59394 63900.00000 0 2713784.671 -17797545.611 -18046436.493 10 0 59394 64800.00000 0 3532174.443 -15602942.409 -19846051.157 10 0 59394 65700.00000 0 4592861.754 -13294930.509 -21259452.950 10 0 59394 66600.00000 0 5890283.408 -10940060.601 -22259174.307 10 0 59394 67500.00000 0 7406596.201 -8604054.172 -22825813.766 10 0 59394 68400.00000 0 9112229.530 -6349223.361 -22948410.435 10 0 59394 69300.00000 0 10966944.660 -4232049.957 -22624652.710 10 0 59394 70200.00000 0 12921356.706 -2301024.117 -21860917.639 10 0 59394 71100.00000 0 14918855.905 -594832.176 -20672140.634 10 0 59394 72000.00000 0 16897847.896 859031.870 -19081518.449 10 0 59394 72900.00000 0 18794219.407 2045174.661 -17120051.616 10 0 59394 73800.00000 0 20543926.340 2960695.308 -14825935.449 10 0 59394 74700.00000 0 22085595.923 3615046.120 -12243811.834 10 0 59394 75600.00000 0 23363034.246 4029370.047 -9423896.522 10 0 59394 76500.00000 0 24327534.312 4235344.578 -6420999.171 10 0 59394 77400.00000 0 24939888.180 4273582.434 -3293455.477 10 0 59394 78300.00000 0 25172019.246 4191658.064 -101992.410 10 0 59394 79200.00000 0 25008166.682 4041844.426 3091451.186 10 0 59394 80100.00000 0 24445572.854 3878656.600 6224925.448 10 0 59394 81000.00000 0 23494645.425 3756306.641 9237668.454 10 0 59394 81900.00000 0 22178587.784 3726177.571 12071280.120 10 0 59394 82800.00000 0 20532513.642 3834423.339 14670848.419 10 0 59394 83700.00000 0 18602082.966 4119796.032 16986006.625 10 0 59394 84600.00000 0 16441716.158 4611791.953 18971901.724 10 0 59394 85500.00000 0 14112460.731 5329194.635 20590055.964 99